2021-046B

Last updated on Thu Jun 03 2021 00:03:40 GMT+0000 (Coordinated Universal Time)

1 48804U 21046B 21153.61648322 .00582282 75426-5 32402-3 0 9991 2 48804 41.4740 10.4817 0087302 209.1972 150.3148 16.09825034 658

Satellite not in orbit